Location: Unspecified
(0.0000°N, 0.0000°E)
Time: 13:40:56
(UTC+00:00)

Courier 1B Rocket - Pass Details

Date: 22 November 2019
Orbit: 920 x 1202 km, 28.2° (Epoch: 08 December)

Event Time Altitude Azimuth Distance (km) Brightness Sun altitude
Rises 20:52:25 0° 305° (NW) 4,064 8.5 -43.0°
Reaches altitude 10° 20:55:16 10° 308° (NW) 3,116 7.8 -43.6°
Enters shadow 20:56:00 13° 309° (NW) 2,872 7.6 -43.7°
Maximum altitude 21:03:03 69° 30° (NNE) 1,266 - -45.3°
Drops below altitude 10° 21:10:44 10° 113° (ESE) 3,083 - -47.0°
Sets 21:13:32 0° 115° (ESE) 4,019 - -47.6°
